Weather History for KEZM - September, 2012

Change the Weather History Date:

Thursday, September 20, 2012

  Actual Average Record
Temperature  
Mean Temperature 76 °F -  
Max Temperature 84 °F 87 °F 91 °F (2013)
Min Temperature 66 °F 64 °F 63 °F (2013)
Cooling Degree Days 10    
Growing Degree Days 26 (Base 50)    
Moisture  
Dew Point 68 °F    
Average Humidity 84    
Maximum Humidity 100    
Minimum Humidity 52    
Precipitation  
Precipitation 0.00 in - - ()
Sea Level Pressure  
Sea Level Pressure 30.09 in    
Wind  
Wind Speed 3 mph ()    
Max Wind Speed 9 mph    
Max Gust Speed -    
Visibility 9.0 miles    
Events      
Averages and records for this station are not official NWS values.
T = Trace of Precipitation, MM = Missing Value Source: Averaged Metar Reports

Daily Weather History Graph

Daily Weather History Graph

Search for Another Location

Airport or City:

Trip Planner

Search our weather history database for the weather conditions in past years. The results will help you decide how hot, cold, wet, or windy it might be!

Date:

Astronomy

Sep. 20, 2012 Rise Set
Actual Time 7:19 AM EDT 7:31 PM EDT
Civil Twilight 6:55 AM EDT 7:55 PM EDT
Nautical Twilight 6:26 AM EDT 8:24 PM EDT
Astronomical Twilight 5:57 AM EDT 8:52 PM EDT
Moon 12:16 PM EDT (9/20) 10:52 PM EDT (9/20)
Length of Visible Light 13h 00m
Length of Day
12h 11m
Waxing Crescent, 26% of the Moon is Illuminated
Sep 20
Waxing Crescent
Sep 22
First Quarter
Sep 29
Full
Oct 8
Last Quarter
Oct 15
New

Hourly Weather History & Observations

Time (EDT) Temp. Heat Index Dew Point Humidity Pressure Visibility Wind Dir Wind Speed Gust Speed Precip Events Conditions
12:35 AM 69.4 °F - 69.4 °F 100% 30.09 in 4.0 mi Calm Calm - N/A   Mostly Cloudy
12:55 AM 69.1 °F - 69.1 °F 100% 30.09 in 2.5 mi Calm Calm - N/A   Scattered Clouds
1:15 AM 68.9 °F - 68.9 °F 100% 30.09 in 4.0 mi Calm Calm - N/A   Scattered Clouds
1:35 AM 70.0 °F - 70.0 °F 100% 30.09 in 10.0 mi East 3.5 mph - N/A   Clear
1:55 AM 70.2 °F - 70.2 °F 100% 30.09 in 10.0 mi Calm Calm - N/A   Clear
2:15 AM 69.8 °F - 69.8 °F 100% 30.09 in 10.0 mi Calm Calm - N/A   Clear
2:35 AM 69.8 °F - 69.8 °F 100% 30.09 in 10.0 mi Calm Calm - N/A   Clear
2:55 AM 69.1 °F - 69.1 °F 100% 30.09 in 10.0 mi ENE 3.5 mph - N/A   Scattered Clouds
3:15 AM 69.1 °F - 69.1 °F 100% 30.09 in 10.0 mi East 4.6 mph - N/A   Scattered Clouds
3:35 AM 68.9 °F - 68.9 °F 100% 30.08 in 10.0 mi East 4.6 mph - N/A   Scattered Clouds
3:55 AM 68.4 °F - 68.4 °F 100% 30.08 in 7.0 mi East 3.5 mph - N/A   Mostly Cloudy
4:15 AM 68.5 °F - 68.5 °F 100% 30.08 in 10.0 mi East 3.5 mph - N/A   Overcast
4:35 AM 68.0 °F - 68.0 °F 100% 30.09 in 7.0 mi ENE 3.5 mph - N/A   Overcast
4:55 AM 68.0 °F - 68.0 °F 100% 30.09 in 10.0 mi ENE 3.5 mph - N/A   Overcast
5:15 AM 68.0 °F - 68.0 °F 100% 30.09 in 10.0 mi ENE 4.6 mph - N/A   Overcast
5:35 AM 68.0 °F - 68.0 °F 100% 30.10 in 10.0 mi ENE 3.5 mph - N/A   Overcast
5:55 AM 68.0 °F - 68.0 °F 100% 30.10 in 10.0 mi East 4.6 mph - N/A   Overcast
6:15 AM 67.8 °F - 67.8 °F 100% 30.10 in 10.0 mi East 5.8 mph - N/A   Overcast
6:35 AM 67.6 °F - 67.6 °F 100% 30.11 in 10.0 mi East 4.6 mph - N/A   Overcast
6:55 AM 67.5 °F - 67.5 °F 100% 30.12 in 10.0 mi ENE 4.6 mph - N/A   Overcast
7:15 AM 67.1 °F - 67.1 °F 100% 30.12 in 10.0 mi ENE 5.8 mph - N/A   Overcast
7:35 AM 67.3 °F - 67.3 °F 100% 30.12 in 7.0 mi ENE 4.6 mph - N/A   Overcast
7:55 AM 67.5 °F - 67.5 °F 100% 30.12 in 7.0 mi ENE 5.8 mph - N/A   Overcast
8:15 AM 67.5 °F - 67.5 °F 100% 30.12 in 7.0 mi NE 4.6 mph - N/A   Overcast
8:35 AM 67.8 °F - 67.8 °F 100% 30.13 in 7.0 mi ENE 3.5 mph - N/A   Overcast
8:55 AM 68.4 °F - 68.4 °F 100% 30.13 in 10.0 mi ENE 4.6 mph - N/A   Overcast
9:15 AM 69.1 °F - 69.1 °F 100% 30.13 in 10.0 mi Calm Calm - N/A   Overcast
9:35 AM 69.8 °F - 69.8 °F 100% 30.13 in 10.0 mi ENE 4.6 mph - N/A   Overcast
9:55 AM 70.7 °F - 70.7 °F 100% 30.14 in 10.0 mi ENE 4.6 mph - N/A   Overcast
10:15 AM 71.8 °F - 70.0 °F 94% 30.14 in 10.0 mi East 3.5 mph - N/A   Overcast
10:35 AM 74.8 °F - 67.3 °F 77% 30.14 in 10.0 mi Calm Calm - N/A   Scattered Clouds
10:55 AM 77.4 °F - 67.6 °F 72% 30.13 in 10.0 mi SE 3.5 mph - N/A   Scattered Clouds
11:15 AM 77.5 °F - 67.5 °F 71% 30.13 in 10.0 mi East 6.9 mph - N/A   Mostly Cloudy
11:55 AM 80.2 °F 82.6 °F 66.9 °F 64% 30.12 in 10.0 mi ESE 6.9 mph - N/A   Overcast
12:15 PM 81.3 °F 84.0 °F 67.6 °F 63% 30.12 in 10.0 mi SE 5.8 mph - N/A   Mostly Cloudy
12:35 PM 80.8 °F 83.1 °F 66.7 °F 62% 30.11 in 10.0 mi Calm Calm - N/A   Scattered Clouds
12:55 PM 82.2 °F 84.7 °F 66.9 °F 60% 30.10 in 10.0 mi South 3.5 mph - N/A   Scattered Clouds
1:15 PM 80.6 °F 82.7 °F 66.0 °F 61% 30.10 in 10.0 mi Calm Calm - N/A   Scattered Clouds
1:35 PM 83.3 °F 85.5 °F 66.0 °F 56% 30.10 in 10.0 mi ENE 5.8 mph - N/A   Mostly Cloudy
1:55 PM 84.4 °F 86.3 °F 65.3 °F 53% 30.09 in 10.0 mi SSE 4.6 mph - N/A   Mostly Cloudy
2:15 PM 83.5 °F 84.9 °F 64.2 °F 52% 30.08 in 10.0 mi Calm Calm - N/A   Mostly Cloudy
2:35 PM 82.0 °F 83.8 °F 64.8 °F 56% 30.07 in 10.0 mi Calm Calm - N/A   Mostly Cloudy
2:55 PM 81.5 °F 83.3 °F 64.8 °F 57% 30.07 in 10.0 mi SSE 3.5 mph - N/A   Overcast
3:15 PM 82.2 °F 83.8 °F 64.4 °F 55% 30.06 in 10.0 mi ESE 3.5 mph - N/A   Overcast
3:35 PM 84.4 °F 86.1 °F 64.9 °F 52% 30.05 in 10.0 mi SE 5.8 mph - N/A   Mostly Cloudy
3:55 PM 83.1 °F 85.0 °F 65.7 °F 55% 30.05 in 10.0 mi ESE 6.9 mph - N/A   Mostly Cloudy
4:15 PM 81.5 °F 83.4 °F 65.5 °F 58% 30.06 in 10.0 mi ESE 5.8 mph - N/A   Scattered Clouds
4:35 PM 81.1 °F 83.2 °F 66.2 °F 60% 30.05 in 10.0 mi ESE 8.1 mph - N/A   Clear
4:55 PM 81.0 °F 83.0 °F 66.0 °F 60% 30.05 in 10.0 mi SE 4.6 mph - N/A   Clear
5:15 PM 81.0 °F 83.0 °F 65.7 °F 60% 30.05 in 10.0 mi ESE 9.2 mph - N/A   Clear
5:35 PM 80.2 °F 82.3 °F 66.0 °F 62% 30.06 in 10.0 mi ESE 5.8 mph - N/A   Clear
5:55 PM 79.7 °F - 66.6 °F 64% 30.06 in 10.0 mi ESE 5.8 mph - N/A   Clear
6:15 PM 79.9 °F - 66.0 °F 62% 30.06 in 10.0 mi SE 5.8 mph - N/A   Clear
6:35 PM 79.2 °F - 66.4 °F 65% 30.06 in 10.0 mi ESE 5.8 mph - N/A   Clear
6:55 PM 78.8 °F - 66.9 °F 67% 30.06 in 10.0 mi SE 5.8 mph - N/A   Clear
7:15 PM 77.7 °F - 65.7 °F 66% 30.06 in 10.0 mi ESE 5.8 mph - N/A   Clear
7:35 PM 76.1 °F - 66.2 °F 71% 30.05 in 10.0 mi SE 4.6 mph - N/A   Clear
7:55 PM 75.2 °F - 66.6 °F 74% 30.05 in 10.0 mi Calm Calm - N/A   Clear
8:15 PM 74.3 °F - 68.0 °F 81% 30.06 in 10.0 mi Calm Calm - N/A   Clear
8:35 PM 73.8 °F - 67.6 °F 81% 30.07 in 10.0 mi Calm Calm - N/A   Clear
8:55 PM 72.7 °F - 70.7 °F 93% 30.07 in 10.0 mi Calm Calm - N/A   Clear
9:15 PM 69.6 °F - 69.6 °F 100% 30.09 in 10.0 mi Calm Calm - N/A   Clear
9:35 PM 68.9 °F - 68.9 °F 100% 30.09 in 10.0 mi Calm Calm - N/A   Clear
9:55 PM 68.5 °F - 68.5 °F 100% 30.10 in 10.0 mi Calm Calm - N/A   Clear
10:15 PM 68.0 °F - 68.0 °F 100% 30.10 in 5.0 mi Calm Calm - N/A   Clear
10:35 PM 67.8 °F - 67.8 °F 100% 30.10 in 1.2 mi Calm Calm - N/A   Mist
10:55 PM 67.3 °F - 67.3 °F 100% 30.11 in 5.0 mi Calm Calm - N/A   Clear
11:15 PM 67.5 °F - 67.5 °F 100% 30.11 in 5.0 mi Calm Calm - N/A   Clear
11:35 PM 66.9 °F - 66.9 °F 100% 30.11 in 1.0 mi Calm Calm - N/A   Mist